Year,Month,Day,Hour,Minute,Value (Times are PST for temperature in C)
2011,09,20,00,00,8.90
2011,09,20,00,01,8.80
2011,09,20,00,02,8.80
2011,09,20,00,03,8.80
2011,09,20,00,04,8.80
2011,09,20,00,05,8.80
2011,09,20,00,06,8.80
2011,09,20,00,07,8.80
2011,09,20,00,08,8.80
2011,09,20,00,09,8.80
2011,09,20,00,10,8.80
2011,09,20,00,11,8.80
2011,09,20,00,12,8.80
2011,09,20,00,13,8.80
2011,09,20,00,14,8.80
2011,09,20,00,15,8.80
2011,09,20,00,16,8.80
2011,09,20,00,17,8.80
2011,09,20,00,18,8.80
2011,09,20,00,19,8.80
2011,09,20,00,20,8.80
2011,09,20,00,21,8.80
2011,09,20,00,22,8.80
2011,09,20,00,23,8.80
2011,09,20,00,24,8.80
2011,09,20,00,25,8.80
2011,09,20,00,26,8.80
2011,09,20,00,27,8.80
2011,09,20,00,28,8.70
2011,09,20,00,29,8.70
2011,09,20,00,30,8.70
2011,09,20,00,31,8.70
2011,09,20,00,32,8.70
2011,09,20,00,33,8.70
2011,09,20,00,34,8.70
2011,09,20,00,35,8.70
2011,09,20,00,36,8.60
2011,09,20,00,37,8.60
2011,09,20,00,38,8.60
2011,09,20,00,39,8.60
2011,09,20,00,40,8.60
2011,09,20,00,41,8.60
2011,09,20,00,42,8.60
2011,09,20,00,43,8.60
2011,09,20,00,44,8.60
2011,09,20,00,45,8.60
2011,09,20,00,46,8.60
2011,09,20,00,47,8.60
2011,09,20,00,48,8.60
2011,09,20,00,49,8.60
2011,09,20,00,50,8.60
2011,09,20,00,51,8.60
2011,09,20,00,52,8.60
2011,09,20,00,53,8.60
2011,09,20,00,54,8.60
2011,09,20,00,55,8.60
2011,09,20,00,56,8.60
2011,09,20,00,57,8.60
2011,09,20,00,58,8.60
2011,09,20,00,59,8.60
2011,09,20,01,00,8.60
2011,09,20,01,01,8.60
2011,09,20,01,02,8.60
2011,09,20,01,03,8.60
2011,09,20,01,04,8.60
2011,09,20,01,05,8.60
2011,09,20,01,06,8.60
2011,09,20,01,07,8.60
2011,09,20,01,08,8.60
2011,09,20,01,09,8.60
2011,09,20,01,10,8.60
2011,09,20,01,11,8.60
2011,09,20,01,12,8.60
2011,09,20,01,13,8.60
2011,09,20,01,14,8.70
2011,09,20,01,15,8.70
2011,09,20,01,16,8.70
2011,09,20,01,17,8.70
2011,09,20,01,18,8.70
2011,09,20,01,19,8.60
2011,09,20,01,20,8.60
2011,09,20,01,21,8.60
2011,09,20,01,22,8.60
2011,09,20,01,23,8.60
2011,09,20,01,24,8.60
2011,09,20,01,25,8.60
2011,09,20,01,26,8.60
2011,09,20,01,27,8.60
2011,09,20,01,28,8.60
2011,09,20,01,29,8.60
2011,09,20,01,30,8.60
2011,09,20,01,31,8.50
2011,09,20,01,32,8.50
2011,09,20,01,33,8.50
2011,09,20,01,34,8.60
2011,09,20,01,35,8.60
2011,09,20,01,36,8.60
2011,09,20,01,37,8.60
2011,09,20,01,38,8.60
2011,09,20,01,39,8.60
2011,09,20,01,40,8.50
2011,09,20,01,41,8.50
2011,09,20,01,42,8.50
2011,09,20,01,43,8.50
2011,09,20,01,44,8.50
2011,09,20,01,45,8.50
2011,09,20,01,46,8.50
2011,09,20,01,47,8.40
2011,09,20,01,48,8.40
2011,09,20,01,49,8.40
2011,09,20,01,50,8.40
2011,09,20,01,51,8.40
2011,09,20,01,52,8.40
2011,09,20,01,53,8.40
2011,09,20,01,54,8.40
2011,09,20,01,55,8.40
2011,09,20,01,56,8.30
2011,09,20,01,57,8.30
2011,09,20,01,58,8.30
2011,09,20,01,59,8.40
2011,09,20,02,00,8.40
2011,09,20,02,01,8.40
2011,09,20,02,02,8.40
2011,09,20,02,03,8.40
2011,09,20,02,04,8.40
2011,09,20,02,05,8.40
2011,09,20,02,06,8.40
2011,09,20,02,07,8.40
2011,09,20,02,08,8.40
2011,09,20,02,09,8.40
2011,09,20,02,10,8.40
2011,09,20,02,11,8.40
2011,09,20,02,12,8.30
2011,09,20,02,13,8.30
2011,09,20,02,14,8.30
2011,09,20,02,15,8.30
2011,09,20,02,16,8.30
2011,09,20,02,17,8.30
2011,09,20,02,18,8.30
2011,09,20,02,19,8.30
2011,09,20,02,20,8.20
2011,09,20,02,21,8.20
2011,09,20,02,22,8.20
2011,09,20,02,23,8.20
2011,09,20,02,24,8.20
2011,09,20,02,25,8.20
2011,09,20,02,26,8.20
2011,09,20,02,27,8.20
2011,09,20,02,28,8.20
2011,09,20,02,29,8.20
2011,09,20,02,30,8.20
2011,09,20,02,31,8.20
2011,09,20,02,32,8.20
2011,09,20,02,33,8.20
2011,09,20,02,34,8.10
2011,09,20,02,35,8.10
2011,09,20,02,36,8.20
2011,09,20,02,37,8.10
2011,09,20,02,38,8.10
2011,09,20,02,39,8.20
2011,09,20,02,40,8.20
2011,09,20,02,41,8.20
2011,09,20,02,42,8.20
2011,09,20,02,43,8.20
2011,09,20,02,44,8.20
2011,09,20,02,45,8.20
2011,09,20,02,46,8.20
2011,09,20,02,47,8.20
2011,09,20,02,48,8.20
2011,09,20,02,49,8.10
2011,09,20,02,50,8.10
2011,09,20,02,51,8.10
2011,09,20,02,52,8.20
2011,09,20,02,53,8.20
2011,09,20,02,54,8.20
2011,09,20,02,55,8.20
2011,09,20,02,56,8.20
2011,09,20,02,57,8.20
2011,09,20,02,58,8.20
2011,09,20,02,59,8.20
2011,09,20,03,00,8.20
2011,09,20,03,01,8.20
2011,09,20,03,02,8.20
2011,09,20,03,03,8.10
2011,09,20,03,04,8.10
2011,09,20,03,05,8.10
2011,09,20,03,06,8.10
2011,09,20,03,07,8.10
2011,09,20,03,08,8.10
2011,09,20,03,09,8.10
2011,09,20,03,10,8.10
2011,09,20,03,11,8.10
2011,09,20,03,12,8.10
2011,09,20,03,13,8.10
2011,09,20,03,14,8.10
2011,09,20,03,15,8.10
2011,09,20,03,16,8.10
2011,09,20,03,17,8.10
2011,09,20,03,18,8.10
2011,09,20,03,19,8.10
2011,09,20,03,20,8.10
2011,09,20,03,21,8.10
2011,09,20,03,22,8.00
2011,09,20,03,23,8.00
2011,09,20,03,24,8.00
2011,09,20,03,25,8.00
2011,09,20,03,26,8.00
2011,09,20,03,27,8.00
2011,09,20,03,28,8.00
2011,09,20,03,29,8.00
2011,09,20,03,30,8.00
2011,09,20,03,31,8.00
2011,09,20,03,32,8.00
2011,09,20,03,33,8.00
2011,09,20,03,34,7.90
2011,09,20,03,35,7.90
2011,09,20,03,36,7.90
2011,09,20,03,37,7.90
2011,09,20,03,38,7.90
2011,09,20,03,39,7.90
2011,09,20,03,40,7.90
2011,09,20,03,41,7.90
2011,09,20,03,42,7.90
2011,09,20,03,43,7.90
2011,09,20,03,44,7.90
2011,09,20,03,45,8.00
2011,09,20,03,46,8.00
2011,09,20,03,47,8.00
2011,09,20,03,48,8.00
2011,09,20,03,49,8.00
2011,09,20,03,50,8.00
2011,09,20,03,51,8.00
2011,09,20,03,52,8.00
2011,09,20,03,53,8.00
2011,09,20,03,54,8.00
2011,09,20,03,55,8.00
2011,09,20,03,56,8.00
2011,09,20,03,57,8.00
2011,09,20,03,58,8.00
2011,09,20,03,59,8.00
2011,09,20,04,00,8.00
2011,09,20,04,01,8.00
2011,09,20,04,02,8.00
2011,09,20,04,03,8.00
2011,09,20,04,04,8.10
2011,09,20,04,05,8.10
2011,09,20,04,06,8.10
2011,09,20,04,07,8.10
2011,09,20,04,08,8.10
2011,09,20,04,09,8.10
2011,09,20,04,10,8.10
2011,09,20,04,11,8.10
2011,09,20,04,12,8.10
2011,09,20,04,13,8.10
2011,09,20,04,14,8.10
2011,09,20,04,15,8.10
2011,09,20,04,16,8.10
2011,09,20,04,17,8.10
2011,09,20,04,18,8.10
2011,09,20,04,19,8.10
2011,09,20,04,20,8.10
2011,09,20,04,21,8.10
2011,09,20,04,22,8.10
2011,09,20,04,23,8.10
2011,09,20,04,24,8.10
2011,09,20,04,25,8.10
2011,09,20,04,26,8.10
2011,09,20,04,27,8.10
2011,09,20,04,28,8.10
2011,09,20,04,29,8.10
2011,09,20,04,30,8.10
2011,09,20,04,31,8.10
2011,09,20,04,32,8.10
2011,09,20,04,33,8.00
2011,09,20,04,34,8.10
2011,09,20,04,35,8.00
2011,09,20,04,36,8.00
2011,09,20,04,37,8.00
2011,09,20,04,38,8.00
2011,09,20,04,39,8.00
2011,09,20,04,40,8.00
2011,09,20,04,41,8.00
2011,09,20,04,42,8.00
2011,09,20,04,43,8.00
2011,09,20,04,44,8.00
2011,09,20,04,45,8.00
2011,09,20,04,46,8.00
2011,09,20,04,47,8.00
2011,09,20,04,48,8.00
2011,09,20,04,49,8.00
2011,09,20,04,50,8.00
2011,09,20,04,51,8.00
2011,09,20,04,52,8.00
2011,09,20,04,53,8.00
2011,09,20,04,54,8.00
2011,09,20,04,55,8.00
2011,09,20,04,56,8.00
2011,09,20,04,57,8.00
2011,09,20,04,58,8.00
2011,09,20,04,59,8.00
2011,09,20,05,00,8.00
2011,09,20,05,01,8.00
2011,09,20,05,02,8.00
2011,09,20,05,03,8.00
2011,09,20,05,04,8.00
2011,09,20,05,05,8.00
2011,09,20,05,06,8.00
2011,09,20,05,07,8.10
2011,09,20,05,08,8.10
2011,09,20,05,09,8.10
2011,09,20,05,10,8.10
2011,09,20,05,11,8.10
2011,09,20,05,12,8.10
2011,09,20,05,13,8.10
2011,09,20,05,14,8.10
2011,09,20,05,15,8.10
2011,09,20,05,16,8.10
2011,09,20,05,17,8.10
2011,09,20,05,18,8.10
2011,09,20,05,19,8.10
2011,09,20,05,20,8.10
2011,09,20,05,21,8.10
2011,09,20,05,22,8.10
2011,09,20,05,23,8.10
2011,09,20,05,24,8.10
2011,09,20,05,25,8.10
2011,09,20,05,26,8.10
2011,09,20,05,27,8.10
2011,09,20,05,28,8.10
2011,09,20,05,29,8.10
2011,09,20,05,30,8.10
2011,09,20,05,31,8.10
2011,09,20,05,32,8.10
2011,09,20,11,13,17.80
2011,09,20,11,14,17.80
2011,09,20,11,15,17.80
2011,09,20,11,16,17.80
2011,09,20,11,17,17.90
2011,09,20,11,18,18.00
2011,09,20,11,19,18.10
2011,09,20,11,20,18.10
2011,09,20,11,21,18.20
2011,09,20,11,22,18.20
2011,09,20,11,23,18.30
2011,09,20,11,24,18.30
2011,09,20,11,25,18.30
2011,09,20,11,26,18.30
2011,09,20,11,27,18.30
2011,09,20,11,28,18.20
2011,09,20,11,29,18.10
2011,09,20,11,30,18.10
2011,09,20,11,31,18.00
2011,09,20,11,32,17.90
2011,09,20,11,33,18.00
2011,09,20,11,34,18.10
2011,09,20,11,35,18.10
2011,09,20,11,36,18.10
2011,09,20,11,37,18.10
2011,09,20,11,38,18.10
2011,09,20,11,39,18.00
2011,09,20,11,40,17.90
2011,09,20,11,41,17.90
2011,09,20,11,42,17.90
2011,09,20,11,43,17.90
2011,09,20,11,44,17.80
2011,09,20,11,45,17.80
2011,09,20,11,46,17.80
2011,09,20,11,47,17.80
2011,09,20,11,48,17.90
2011,09,20,11,49,17.90
2011,09,20,11,50,18.00
2011,09,20,11,51,18.10
2011,09,20,11,52,18.10
2011,09,20,11,53,18.00
2011,09,20,11,54,18.00
2011,09,20,11,55,18.10
2011,09,20,11,56,18.10
2011,09,20,11,57,18.00
2011,09,20,11,58,18.00
2011,09,20,11,59,18.00
2011,09,20,12,00,17.90
2011,09,20,12,01,18.00
2011,09,20,12,02,18.00
2011,09,20,12,03,18.10
2011,09,20,12,04,18.10
2011,09,20,12,05,18.10
2011,09,20,12,06,18.10
2011,09,20,12,07,18.20
2011,09,20,12,08,18.10
2011,09,20,12,09,18.10
2011,09,20,12,10,18.10
2011,09,20,12,11,18.10
2011,09,20,12,12,18.10
2011,09,20,12,13,18.20
2011,09,20,12,14,18.10
2011,09,20,12,15,18.10
2011,09,20,12,16,18.10
2011,09,20,12,17,18.10
2011,09,20,12,18,18.10
2011,09,20,12,19,18.20
2011,09,20,12,20,18.20
2011,09,20,12,21,18.10
2011,09,20,12,22,18.10
2011,09,20,12,23,18.10
2011,09,20,12,24,18.10
2011,09,20,12,25,18.10
2011,09,20,12,26,18.10
2011,09,20,12,27,18.20
2011,09,20,12,28,18.10
2011,09,20,12,29,18.00
2011,09,20,12,30,18.00
2011,09,20,12,31,18.00
2011,09,20,12,32,18.00
2011,09,20,12,33,17.90
2011,09,20,12,34,17.90
2011,09,20,12,35,17.90
2011,09,20,12,36,18.00
2011,09,20,12,37,18.10
2011,09,20,12,38,18.10
2011,09,20,12,39,18.20
2011,09,20,12,40,18.20
2011,09,20,12,41,18.10
2011,09,20,12,42,18.10
2011,09,20,12,43,18.00
2011,09,20,12,44,18.00
2011,09,20,12,45,18.00
2011,09,20,12,46,18.00
2011,09,20,12,47,18.10
2011,09,20,12,48,18.10
2011,09,20,12,49,18.10
2011,09,20,12,50,18.10
2011,09,20,12,51,18.10
2011,09,20,12,52,18.10
2011,09,20,12,53,18.10
2011,09,20,12,54,18.10
2011,09,20,12,55,18.10
2011,09,20,12,56,18.20
2011,09,20,12,57,18.20
2011,09,20,12,58,18.20
2011,09,20,12,59,18.20
2011,09,20,13,00,18.20
2011,09,20,13,01,18.20
2011,09,20,13,02,18.00
2011,09,20,13,03,17.90
2011,09,20,13,04,17.80
2011,09,20,13,05,17.80
2011,09,20,13,06,17.70
2011,09,20,13,07,17.60
2011,09,20,13,08,17.50
2011,09,20,13,09,17.40
2011,09,20,13,10,17.20
2011,09,20,13,11,17.10
2011,09,20,13,12,17.00
2011,09,20,13,13,16.90
2011,09,20,13,14,16.90
2011,09,20,13,15,16.90
2011,09,20,13,16,16.90
2011,09,20,13,17,17.00
2011,09,20,13,18,17.10
2011,09,20,13,19,17.10
2011,09,20,13,20,17.20
2011,09,20,13,21,17.30
2011,09,20,13,22,17.30
2011,09,20,13,23,17.40
2011,09,20,13,24,17.60
2011,09,20,13,25,17.70
2011,09,20,13,26,17.80
2011,09,20,13,27,17.90
2011,09,20,13,28,18.00
2011,09,20,13,29,18.10
2011,09,20,13,30,18.20
2011,09,20,13,31,18.00
2011,09,20,13,32,18.00
2011,09,20,13,33,17.90
2011,09,20,13,34,17.90
2011,09,20,13,35,17.90
2011,09,20,13,36,17.90
2011,09,20,13,37,18.00
2011,09,20,13,38,18.10
2011,09,20,13,39,18.20
2011,09,20,13,40,18.20
2011,09,20,13,41,18.20
2011,09,20,13,42,18.20
2011,09,20,13,43,18.20
2011,09,20,13,44,18.20
2011,09,20,13,45,18.20
2011,09,20,13,46,18.20
2011,09,20,13,47,18.10
2011,09,20,13,48,18.10
2011,09,20,13,49,18.10
2011,09,20,13,50,18.20
2011,09,20,13,51,18.20
2011,09,20,13,52,18.30
2011,09,20,13,53,18.30
2011,09,20,13,54,18.40
2011,09,20,13,55,18.50
2011,09,20,13,56,18.50
2011,09,20,13,57,18.50
2011,09,20,13,58,18.50
2011,09,20,13,59,18.50
2011,09,20,14,00,18.50
2011,09,20,14,01,18.50
2011,09,20,14,02,18.50
2011,09,20,14,03,18.40
2011,09,20,14,04,18.40
2011,09,20,14,05,18.40
2011,09,20,14,06,18.50
2011,09,20,14,07,18.50
2011,09,20,14,08,18.50
2011,09,20,14,09,18.50
2011,09,20,14,10,18.60
2011,09,20,14,11,18.60
2011,09,20,14,12,18.60
2011,09,20,14,13,18.70
2011,09,20,14,14,18.70
2011,09,20,14,15,18.70
2011,09,20,14,16,18.70
2011,09,20,14,17,18.80
2011,09,20,14,18,18.70
2011,09,20,14,19,18.70
2011,09,20,14,20,18.60
2011,09,20,14,21,18.70
2011,09,20,14,22,18.70
2011,09,20,14,23,18.80
2011,09,20,14,24,18.80
2011,09,20,14,25,18.90
2011,09,20,14,26,18.90
2011,09,20,14,27,19.00
2011,09,20,14,28,18.90
2011,09,20,14,29,18.90
2011,09,20,14,30,18.80
2011,09,20,14,31,18.70
2011,09,20,14,32,18.70
2011,09,20,14,33,18.70
2011,09,20,14,34,18.70
2011,09,20,14,35,18.70
2011,09,20,14,36,18.80
2011,09,20,14,37,18.80
2011,09,20,14,38,18.90
2011,09,20,14,39,18.90
2011,09,20,14,40,19.00
2011,09,20,14,41,19.00
2011,09,20,14,42,19.00
2011,09,20,14,43,19.10
2011,09,20,14,44,19.10
2011,09,20,14,45,19.10
2011,09,20,14,46,19.00
2011,09,20,14,47,19.10
2011,09,20,14,48,19.10
2011,09,20,14,49,19.20
2011,09,20,14,50,19.20
2011,09,20,14,51,19.20
2011,09,20,14,52,19.30
2011,09,20,14,53,19.30
2011,09,20,14,54,19.30
2011,09,20,14,55,19.40
2011,09,20,14,56,19.40
2011,09,20,14,57,19.50
2011,09,20,14,58,19.60
2011,09,20,14,59,19.50
2011,09,20,15,00,19.40
2011,09,20,15,01,19.40
2011,09,20,15,02,19.30
2011,09,20,15,03,19.30
2011,09,20,15,04,19.30
2011,09,20,15,05,19.30
2011,09,20,15,06,19.30
2011,09,20,15,07,19.30
2011,09,20,15,08,19.40
2011,09,20,15,09,19.40
2011,09,20,15,10,19.40
2011,09,20,15,11,19.40
2011,09,20,15,12,19.40
2011,09,20,15,13,19.50
2011,09,20,15,14,19.50
2011,09,20,15,15,19.50
2011,09,20,15,16,19.60
2011,09,20,15,17,19.50
2011,09,20,15,18,19.50
2011,09,20,15,19,19.40
2011,09,20,15,20,19.40
2011,09,20,15,21,19.40
2011,09,20,15,22,19.40
2011,09,20,15,23,19.40
2011,09,20,15,24,19.30
2011,09,20,15,25,19.20
2011,09,20,15,26,19.10
2011,09,20,15,27,19.00
2011,09,20,15,28,18.90
2011,09,20,15,29,18.80
2011,09,20,15,30,18.80
2011,09,20,15,31,18.70
2011,09,20,15,32,18.70
2011,09,20,15,33,18.70
2011,09,20,15,34,18.70
2011,09,20,15,35,18.80
2011,09,20,15,36,18.80
2011,09,20,15,37,18.80
2011,09,20,15,38,18.80
2011,09,20,15,39,18.80
2011,09,20,15,40,18.80
2011,09,20,15,41,18.80
2011,09,20,15,42,18.80
2011,09,20,15,43,18.80
2011,09,20,15,44,18.90
2011,09,20,15,45,18.90
2011,09,20,15,46,18.90
2011,09,20,15,47,18.90
2011,09,20,15,48,18.90
2011,09,20,15,49,19.00
2011,09,20,15,50,19.00
2011,09,20,15,51,18.90
2011,09,20,15,52,18.90
2011,09,20,15,53,18.90
2011,09,20,15,54,18.90
2011,09,20,15,55,19.00
2011,09,20,15,56,18.90
2011,09,20,15,57,18.80
2011,09,20,15,58,18.70
2011,09,20,15,59,18.70
2011,09,20,16,00,18.70
2011,09,20,16,01,18.80
2011,09,20,16,02,18.80
2011,09,20,16,03,18.90
2011,09,20,16,04,19.00
2011,09,20,16,05,19.00
2011,09,20,16,06,19.10
2011,09,20,16,07,19.20
2011,09,20,16,08,19.20
2011,09,20,16,09,19.20
2011,09,20,16,10,19.20
2011,09,20,16,11,19.30
2011,09,20,16,12,19.30
2011,09,20,16,13,19.30
2011,09,20,16,14,19.30
2011,09,20,16,15,19.30
2011,09,20,16,16,19.40
2011,09,20,16,17,19.40
2011,09,20,16,18,19.40
2011,09,20,16,19,19.40
2011,09,20,16,20,19.40
2011,09,20,16,21,19.40
2011,09,20,16,22,19.40
2011,09,20,16,23,19.40
2011,09,20,16,24,19.40
2011,09,20,16,25,19.40
2011,09,20,16,26,19.40
2011,09,20,16,27,19.40
2011,09,20,16,28,19.40
2011,09,20,16,29,19.40
2011,09,20,16,30,19.40
2011,09,20,16,31,19.40
2011,09,20,16,32,19.30
2011,09,20,16,33,19.30
2011,09,20,16,34,19.30
2011,09,20,16,35,19.30
2011,09,20,16,36,19.30
2011,09,20,16,37,19.30
2011,09,20,16,38,19.30
2011,09,20,16,39,19.20
2011,09,20,16,40,19.20
2011,09,20,16,41,19.20
2011,09,20,16,42,19.10
2011,09,20,16,43,19.10
2011,09,20,16,44,19.10
2011,09,20,16,45,19.10
2011,09,20,16,46,19.20
2011,09,20,16,47,19.20
2011,09,20,16,48,19.20
2011,09,20,16,49,19.20
2011,09,20,16,50,19.30
2011,09,20,16,51,19.30
2011,09,20,16,52,19.30
2011,09,20,16,53,19.30
2011,09,20,16,54,19.30
2011,09,20,16,55,19.30
2011,09,20,16,56,19.30
2011,09,20,16,57,19.30
2011,09,20,16,58,19.30
2011,09,20,16,59,19.30
2011,09,20,17,00,19.30
2011,09,20,17,01,19.20
2011,09,20,17,02,19.20
2011,09,20,17,03,19.20
2011,09,20,17,04,19.10
2011,09,20,17,05,19.10
2011,09,20,17,06,19.10
2011,09,20,17,07,19.10
2011,09,20,17,08,19.00
2011,09,20,17,09,19.00
2011,09,20,17,10,18.90
2011,09,20,17,11,18.90
2011,09,20,17,12,18.80
2011,09,20,17,13,18.70
2011,09,20,17,14,18.60
2011,09,20,17,15,18.60
2011,09,20,17,16,18.60
2011,09,20,17,17,18.60
2011,09,20,17,18,18.50
2011,09,20,17,19,18.50
2011,09,20,17,20,18.50
2011,09,20,17,21,18.50
2011,09,20,17,22,18.50
2011,09,20,17,23,18.50
2011,09,20,17,24,18.50
2011,09,20,17,25,18.50
2011,09,20,17,26,18.50
2011,09,20,17,27,18.40
2011,09,20,17,28,18.40
2011,09,20,17,29,18.40
2011,09,20,17,30,18.40
2011,09,20,17,31,18.40
2011,09,20,17,32,18.40
2011,09,20,17,33,18.40
2011,09,20,17,34,18.40
2011,09,20,17,35,18.40
2011,09,20,17,36,18.30
2011,09,20,17,37,18.30
2011,09,20,17,38,18.30
2011,09,20,17,39,18.20
2011,09,20,17,40,18.20
2011,09,20,17,41,18.10
2011,09,20,17,42,18.10
2011,09,20,17,43,18.00
2011,09,20,17,44,18.00
2011,09,20,17,45,17.90
2011,09,20,17,46,17.90
2011,09,20,17,47,17.90
2011,09,20,17,48,17.80
2011,09,20,17,49,17.80
2011,09,20,17,50,17.70
2011,09,20,17,51,17.70
2011,09,20,17,52,17.60
2011,09,20,17,53,17.60
2011,09,20,17,54,17.50
2011,09,20,17,55,17.40
2011,09,20,17,56,17.40
2011,09,20,17,57,17.40
2011,09,20,17,58,17.40
2011,09,20,17,59,17.40
2011,09,20,18,00,17.40
2011,09,20,18,01,17.40
2011,09,20,18,02,17.40
2011,09,20,18,03,17.30
2011,09,20,18,04,17.40
2011,09,20,18,05,17.40
2011,09,20,18,06,17.40
2011,09,20,18,07,17.40
2011,09,20,18,08,17.30
2011,09,20,18,09,17.30
2011,09,20,18,10,17.30
2011,09,20,18,11,17.30
2011,09,20,18,12,17.30
2011,09,20,18,13,17.30
2011,09,20,18,14,17.30
2011,09,20,18,15,17.30
2011,09,20,18,16,17.30
2011,09,20,18,17,17.30
2011,09,20,18,18,17.30
2011,09,20,18,19,17.20
2011,09,20,18,20,17.20
2011,09,20,18,21,17.20
2011,09,20,18,22,17.10
2011,09,20,18,23,17.10
2011,09,20,18,24,17.00
2011,09,20,18,25,17.00
2011,09,20,18,26,16.90
2011,09,20,18,27,16.90
2011,09,20,18,28,16.90
2011,09,20,18,29,16.80
2011,09,20,18,30,16.80
2011,09,20,18,31,16.80
2011,09,20,18,32,16.80
2011,09,20,18,33,16.80
2011,09,20,18,34,16.80
2011,09,20,18,35,16.70
2011,09,20,18,36,16.70
2011,09,20,18,37,16.70
2011,09,20,18,38,16.60
2011,09,20,18,39,16.60
2011,09,20,18,40,16.50
2011,09,20,18,41,16.40
2011,09,20,18,42,16.40
2011,09,20,18,43,16.40
2011,09,20,18,44,16.30
2011,09,20,18,45,16.30
2011,09,20,18,46,16.20
2011,09,20,18,47,16.10
2011,09,20,18,48,16.10
2011,09,20,18,49,16.00
2011,09,20,18,50,16.00
2011,09,20,18,51,15.90
2011,09,20,18,52,15.90
2011,09,20,18,53,15.80
2011,09,20,18,54,15.80
2011,09,20,18,55,15.70
2011,09,20,18,56,15.70
2011,09,20,18,57,15.70
2011,09,20,18,58,15.60
2011,09,20,18,59,15.60
2011,09,20,19,00,15.50
2011,09,20,19,01,15.50
2011,09,20,19,02,15.40
2011,09,20,19,03,15.40
2011,09,20,19,04,15.30
2011,09,20,19,05,15.30
2011,09,20,19,06,15.20
2011,09,20,19,07,15.20
2011,09,20,19,08,15.10
2011,09,20,19,09,15.10
2011,09,20,19,10,15.00
2011,09,20,19,11,15.00
2011,09,20,19,12,15.00
2011,09,20,19,13,15.00
2011,09,20,19,14,15.00
2011,09,20,19,15,15.00
2011,09,20,19,16,15.00
2011,09,20,19,17,15.00
2011,09,20,19,18,14.90
2011,09,20,19,19,14.80
2011,09,20,19,20,14.80
2011,09,20,19,21,14.80
2011,09,20,19,22,14.70
2011,09,20,19,23,14.70
2011,09,20,19,24,14.60
2011,09,20,19,25,14.60
2011,09,20,19,26,14.60
2011,09,20,19,27,14.60
2011,09,20,19,28,14.50
2011,09,20,19,29,14.50
2011,09,20,19,30,14.40
2011,09,20,19,31,14.40
2011,09,20,19,32,14.40
2011,09,20,19,33,14.40
2011,09,20,19,34,14.30
2011,09,20,19,35,14.30
2011,09,20,19,36,14.30
2011,09,20,19,37,14.30
2011,09,20,19,38,14.30
2011,09,20,19,39,14.20
2011,09,20,19,40,14.20
2011,09,20,19,41,14.20
2011,09,20,19,42,14.20
2011,09,20,19,43,14.20
2011,09,20,19,44,14.10
2011,09,20,19,45,14.10
2011,09,20,19,46,14.10
2011,09,20,19,47,14.10
2011,09,20,19,48,14.10
2011,09,20,19,49,14.00
2011,09,20,19,50,14.00
2011,09,20,19,51,14.00
2011,09,20,19,52,14.00
2011,09,20,19,53,13.90
2011,09,20,19,54,13.90
2011,09,20,19,55,13.90
2011,09,20,19,56,13.90
2011,09,20,19,57,13.90
2011,09,20,19,58,13.90
2011,09,20,19,59,13.80
2011,09,20,20,00,13.80
2011,09,20,20,01,13.80
2011,09,20,20,02,13.80
2011,09,20,20,03,13.80
2011,09,20,20,04,13.80
2011,09,20,20,05,13.80
2011,09,20,20,06,13.70
2011,09,20,20,07,13.70
2011,09,20,20,08,13.70
2011,09,20,20,09,13.70
2011,09,20,20,10,13.70
2011,09,20,20,11,13.70
2011,09,20,20,12,13.60
2011,09,20,20,13,13.60
2011,09,20,20,14,13.60
2011,09,20,20,15,13.60
2011,09,20,20,16,13.60
2011,09,20,20,17,13.60
2011,09,20,20,18,13.60
2011,09,20,20,19,13.60
2011,09,20,20,20,13.60
2011,09,20,20,21,13.60
2011,09,20,20,22,13.60
2011,09,20,20,23,13.60
2011,09,20,20,24,13.50
2011,09,20,20,25,13.50
2011,09,20,20,26,13.50
2011,09,20,20,27,13.50
2011,09,20,20,28,13.50
2011,09,20,20,29,13.40
2011,09,20,20,30,13.40
2011,09,20,20,31,13.40
2011,09,20,20,32,13.40
2011,09,20,20,33,13.40
2011,09,20,20,34,13.40
2011,09,20,20,35,13.30
2011,09,20,20,36,13.30
2011,09,20,20,37,13.30
2011,09,20,20,38,13.30
2011,09,20,20,39,13.30
2011,09,20,20,40,13.30
2011,09,20,20,41,13.20
2011,09,20,20,42,13.20
2011,09,20,20,43,13.20
2011,09,20,20,44,13.20
2011,09,20,20,45,13.10
2011,09,20,20,46,13.10
2011,09,20,20,47,13.10
2011,09,20,20,48,13.10
2011,09,20,20,49,13.10
2011,09,20,20,50,13.10
2011,09,20,20,51,13.00
2011,09,20,20,52,13.00
2011,09,20,20,53,13.00
2011,09,20,20,54,13.00
2011,09,20,20,55,12.90
2011,09,20,20,56,12.90
2011,09,20,20,57,12.90
2011,09,20,20,58,12.90
2011,09,20,20,59,12.90
2011,09,20,21,00,12.90
2011,09,20,21,01,12.90
2011,09,20,21,02,13.00
2011,09,20,21,03,13.00
2011,09,20,21,04,13.00
2011,09,20,21,05,13.00
2011,09,20,21,06,13.00
2011,09,20,21,07,13.00
2011,09,20,21,08,13.00
2011,09,20,21,09,13.00
2011,09,20,21,10,13.00
2011,09,20,21,11,13.00
2011,09,20,21,12,12.90
2011,09,20,21,13,12.90
2011,09,20,21,14,12.90
2011,09,20,21,15,12.90
2011,09,20,21,16,12.90
2011,09,20,21,17,12.90
2011,09,20,21,18,12.90
2011,09,20,21,19,12.90
2011,09,20,21,20,12.90
2011,09,20,21,21,12.90
2011,09,20,21,22,12.90
2011,09,20,21,23,12.90
2011,09,20,21,24,12.80
2011,09,20,21,25,12.80
2011,09,20,21,26,12.80
2011,09,20,21,27,12.80
2011,09,20,21,28,12.80
2011,09,20,21,29,12.80
2011,09,20,21,30,12.80
2011,09,20,21,31,12.80
2011,09,20,21,32,12.80
2011,09,20,21,33,12.80
2011,09,20,21,34,12.80
2011,09,20,21,35,12.80
2011,09,20,21,36,12.80
2011,09,20,21,37,12.80
2011,09,20,21,38,12.80
2011,09,20,21,39,12.80
2011,09,20,21,40,12.80
2011,09,20,21,41,12.80
2011,09,20,21,42,12.80
2011,09,20,21,43,12.90
2011,09,20,21,44,13.00
2011,09,20,21,45,13.10
2011,09,20,21,46,13.10
2011,09,20,21,47,13.20
2011,09,20,21,48,13.30
2011,09,20,21,49,13.40
2011,09,20,21,50,13.50
2011,09,20,21,51,13.60
2011,09,20,21,52,13.70
2011,09,20,21,53,13.80
2011,09,20,21,54,13.80
2011,09,20,21,55,13.80
2011,09,20,21,56,13.80
2011,09,20,21,57,13.80
2011,09,20,21,58,13.90
2011,09,20,21,59,14.20
2011,09,20,22,00,14.20
2011,09,20,22,01,14.20
2011,09,20,22,02,14.20
2011,09,20,22,03,14.20
2011,09,20,22,04,14.20
2011,09,20,22,05,14.20
2011,09,20,22,06,14.20
2011,09,20,22,07,14.10
2011,09,20,22,08,14.10
2011,09,20,22,09,14.00
2011,09,20,22,10,13.90
2011,09,20,22,11,13.90
2011,09,20,22,12,13.80
2011,09,20,22,13,13.80
2011,09,20,22,14,13.70
2011,09,20,22,15,13.70
2011,09,20,22,16,13.70
2011,09,20,22,17,13.70
2011,09,20,22,18,13.70
2011,09,20,22,19,13.60
2011,09,20,22,20,13.60
2011,09,20,22,21,13.60
2011,09,20,22,22,13.50
2011,09,20,22,23,13.50
2011,09,20,22,24,13.50
2011,09,20,22,25,13.40
2011,09,20,22,26,13.40
2011,09,20,22,27,13.40
2011,09,20,22,28,13.40
2011,09,20,22,29,13.40
2011,09,20,22,30,13.40
2011,09,20,22,31,13.40
2011,09,20,22,32,13.30
2011,09,20,22,33,13.30
2011,09,20,22,34,13.30
2011,09,20,22,35,13.20
2011,09,20,22,36,13.20
2011,09,20,22,37,13.10
2011,09,20,22,38,13.10
2011,09,20,22,39,13.00
2011,09,20,22,40,13.00
2011,09,20,22,41,12.90
2011,09,20,22,42,12.90
2011,09,20,22,43,13.00
2011,09,20,22,44,13.10
2011,09,20,22,45,13.10
2011,09,20,22,46,13.20
2011,09,20,22,47,13.30
2011,09,20,22,48,13.30
2011,09,20,22,49,13.40
2011,09,20,22,50,13.40
2011,09,20,22,51,13.40
2011,09,20,22,52,13.40
2011,09,20,22,53,13.50
2011,09,20,22,54,13.50
2011,09,20,22,55,13.60
2011,09,20,22,56,13.60
2011,09,20,22,57,13.70
2011,09,20,22,58,13.70
2011,09,20,22,59,13.70
2011,09,20,23,00,13.70
2011,09,20,23,01,13.70
2011,09,20,23,02,13.70
2011,09,20,23,03,13.70
2011,09,20,23,04,13.70
2011,09,20,23,05,13.70
2011,09,20,23,06,13.70
2011,09,20,23,07,13.70
2011,09,20,23,08,13.70
2011,09,20,23,09,13.70
2011,09,20,23,10,13.70
2011,09,20,23,11,13.70
2011,09,20,23,12,13.70
2011,09,20,23,13,13.70